QPF
0.00 0.01 0.00 0.00 0.00 0.00 0.00 0.00 0.00 0.00 0.00 0.00 0.00 0.00 0.00 0.00 0.00 0.00 0.00 0.00 0.00 0.00 0.00 0.00 0.00 0.00 0.00 0.00 0.00 0.00 0.00 0.00 0.00 0.00 0.00 0.00 0.00 0.00 0.01 0.03 0.03 0.03 0.01
0.00 0.00 0.01 0.00 0.00 0.00 0.00 0.00 0.00 0.00 0.00 0.00 0.00 0.00 0.00 0.00 0.00 0.00 0.00 0.00 0.00 0.00 0.00 0.00 0.00 0.00 0.00 0.00 0.00 0.00 0.00 0.00 0.00 0.00 0.00 0.00 0.00 0.00 0.00 0.00 0.00 0.02 0.02
0.00 0.00 0.01 0.00 0.00 0.00 0.00 0.00 0.01 0.00 0.00 0.00 0.00 0.00 0.00 0.00 0.00 0.00 0.00 0.00 0.00 0.00 0.00 0.00 0.00 0.00 0.00 0.00 0.00 0.00 0.00 0.00 0.00 0.00 0.00 0.00 0.00 0.00 0.00 0.00 0.00 0.00 0.00
0.17 0.12 0.04 0.00 0.00 0.00 0.00 0.02 0.02 0.00 0.00 0.00 0.00 0.00 0.00 0.00 0.00 0.00 0.00 0.00 0.00 0.00 0.00 0.00 0.00 0.00 0.00 0.00 0.00 0.00 0.00 0.00 0.00 0.00 0.00 0.00 0.00 0.00 0.00 0.00 0.00 0.00 0.00
0.61 0.32 0.08 0.00 0.00 0.00 0.00 0.01 0.03 0.02 0.00 0.00 0.00 0.00 0.00 0.00 0.00 0.00 0.00 0.00 0.00 0.00 0.00 0.00 0.00 0.00 0.00 0.00 0.00 0.00 0.00 0.00 0.00 0.00 0.00 0.00 0.00 0.00 0.00 0.00 0.00 0.00 0.00
0.27 0.16 0.09 0.01 0.06 0.03 0.02 0.05 0.03 0.00 0.00 0.00 0.00 0.00 0.00 0.00 0.00 0.00 0.00 0.00 0.00 0.00 0.00 0.00 0.00 0.00 0.00 0.00 0.00 0.00 0.00 0.00 0.00 0.00 0.00 0.00 0.00 0.00 0.00 0.00 0.00 0.00 0.00
0.04 0.01 0.04 0.06 0.08 0.09 0.10 0.03 0.00 0.00 0.00 0.00 0.00 0.00 0.00 0.00 0.00 0.00 0.00 0.00 0.00 0.00 0.00 0.00 0.00 0.00 0.00 0.00 0.00 0.00 0.00 0.00 0.00 0.00 0.00 0.00 0.00 0.00 0.00 0.00 0.00 0.00 0.00
0.05 0.01 0.03 0.04 0.04 0.10 0.07 0.01 0.00 0.00 0.00 0.00 0.00 0.00 0.00 0.00 0.00 0.00 0.00 0.00 0.00 0.00 0.00 0.00 0.00 0.00 0.00 0.00 0.00 0.00 0.00 0.00 0.00 0.00 0.00 0.00 0.00 0.00 0.00 0.00 0.00 0.00 0.00
0.01 0.05 0.06 0.00 0.04 0.08 0.02 0.00 0.00 0.00 0.00 0.00 0.00 0.00 0.00 0.00 0.00 0.00 0.00 0.00 0.00 0.00 0.00 0.00 0.00 0.00 0.00 0.00 0.00 0.00 0.00 0.00 0.00 0.00 0.00 0.00 0.00 0.00 0.00 0.00 0.00 0.00 0.00
0.02 0.02 0.00 0.04 0.10 0.02 0.00 0.00 0.00 0.00 0.00 0.00 0.00 0.00 0.00 0.00 0.00 0.00 0.00 0.00 0.00 0.00 0.00 0.00 0.00 0.00 0.00 0.00 0.00 0.00 0.00 0.00 0.00 0.00 0.00 0.00 0.00 0.00 0.00 0.00 0.00 0.00 0.01
0.05 0.02 0.03 0.04 0.01 0.00 0.00 0.00 0.00 0.00 0.00 0.00 0.00 0.00 0.00 0.00 0.00 0.00 0.00 0.00 0.00 0.00 0.00 0.00 0.00 0.00 0.00 0.00 0.00 0.00 0.00 0.00 0.00 0.00 0.00 0.00 0.00 0.00 0.00 0.00 0.00 0.01 0.01
0.03 0.02 0.01 0.00 0.00 0.00 0.00 0.00 0.00 0.00 0.00 0.00 0.00 0.00 0.00 0.00 0.00 0.00 0.00 0.00 0.00 0.00 0.00 0.00 0.00 0.00 0.00 0.00 0.00 0.00 0.00 0.00 0.00 0.00 0.00 0.00 0.00 0.00 0.00 0.00 0.00 0.00 0.00
0.00 0.00 0.00 0.00 0.00 0.00 0.00 0.00 0.00 0.00 0.00 0.00 0.00 0.00 0.00 0.00 0.00 0.00 0.00 0.00 0.00 0.00 0.00 0.00 0.00 0.00 0.00 0.00 0.00 0.00 0.00 0.00 0.00 0.00 0.00 0.00 0.00 0.00 0.00 0.00 0.00 0.00 0.00
0.00 0.00 0.00 0.00 0.00 0.00 0.00 0.00 0.00 0.00 0.00 0.00 0.00 0.00 0.00 0.00 0.00 0.00 0.00 0.00 0.00 0.00 0.00 0.00 0.00 0.00 0.00 0.00 0.00 0.00 0.00 0.00 0.00 0.00 0.00 0.00 0.00 0.00 0.00 0.00 0.00 0.00 0.00
0.00 0.00 0.00 0.00 0.00 0.00 0.00 0.00 0.00 0.00 0.00 0.00 0.00 0.00 0.00 0.00 0.00 0.00 0.00 0.00 0.00 0.00 0.00 0.00 0.00 0.00 0.00 0.00 0.00 0.00 0.00 0.00 0.00 0.00 0.00 0.00 0.00 0.00 0.00 0.00 0.00 0.00 0.00
0.00 0.00 0.00 0.00 0.00 0.00 0.00 0.00 0.00 0.00 0.00 0.00 0.00 0.00 0.00 0.00 0.00 0.00 0.00 0.00 0.00 0.00 0.00 0.00 0.00 0.00 0.00 0.00 0.00 0.00 0.00 0.00 0.00 0.00 0.00 0.00 0.00 0.00 0.00 0.00 0.00 0.00 0.00
0.00 0.00 0.00 0.00 0.00 0.00 0.00 0.00 0.00 0.00 0.00 0.00 0.00 0.00 0.00 0.00 0.00 0.00 0.00 0.00 0.00 0.00 0.00 0.00 0.00 0.00 0.00 0.00 0.00 0.00 0.00 0.00 0.00 0.00 0.00 0.00 0.00 0.00 0.00 0.00 0.00 0.00 0.00
0.00 0.00 0.00 0.00 0.00 0.00 0.00 0.00 0.00 0.00 0.00 0.00 0.00 0.00 0.00 0.00 0.00 0.00 0.00 0.00 0.00 0.00 0.00 0.00 0.00 0.00 0.00 0.00 0.00 0.00 0.00 0.00 0.00 0.00 0.00 0.00 0.00 0.00 0.00 0.00 0.00 0.00 0.00
0.00 0.00 0.00 0.00 0.00 0.00 0.00 0.00 0.00 0.00 0.00 0.00 0.00 0.00 0.00 0.00 0.00 0.00 0.00 0.00 0.00 0.00 0.00 0.00 0.00 0.00 0.00 0.00 0.00 0.00 0.00 0.00 0.00 0.00 0.00 0.00 0.00 0.00 0.00 0.00 0.00 0.00 0.00
0.00 0.01 0.00 0.00 0.00 0.00 0.00 0.00 0.00 0.00 0.00 0.00 0.00 0.00 0.00 0.00 0.00 0.00 0.00 0.00 0.00 0.00 0.00 0.00 0.00 0.00 0.00 0.00 0.00 0.00 0.00 0.00 0.00 0.00 0.00 0.00 0.00 0.00 0.00 0.00 0.00 0.00 0.00
0.00 0.00 0.00 0.00 0.00 0.00 0.00 0.00 0.00 0.00 0.00 0.00 0.00 0.00 0.00 0.00 0.00 0.00 0.00 0.00 0.00 0.00 0.00 0.00 0.00 0.00 0.00 0.00 0.00 0.00 0.00 0.00 0.00 0.00 0.00 0.00 0.00 0.00 0.00 0.00 0.00 0.00 0.00
0.00 0.00 0.00 0.00 0.00 0.00 0.00 0.00 0.00 0.00 0.00 0.00 0.00 0.00 0.00 0.00 0.00 0.00 0.00 0.00 0.00 0.00 0.00 0.00 0.00 0.00 0.00 0.00 0.00 0.00 0.00 0.00 0.00 0.00 0.00 0.00 0.00 0.00 0.00 0.00 0.00 0.00 0.00
0.00 0.00 0.00 0.00 0.00 0.00 0.00 0.00 0.00 0.00 0.00 0.00 0.00 0.00 0.00 0.00 0.00 0.00 0.00 0.00 0.00 0.00 0.00 0.00 0.00 0.00 0.00 0.00 0.00 0.00 0.00 0.00 0.00 0.00 0.00 0.00 0.00 0.00 0.00 0.00 0.00 0.00 0.00
0.00 0.00 0.00 0.00 0.00 0.00 0.00 0.00 0.00 0.00 0.00 0.00 0.00 0.00 0.00 0.00 0.00 0.00 0.00 0.00 0.00 0.00 0.00 0.00 0.00 0.00 0.00 0.00 0.00 0.00 0.00 0.00 0.00 0.00 0.00 0.00 0.00 0.00 0.00 0.00 0.00 0.00 0.00
0.00 0.00 0.00 0.00 0.00 0.00 0.00 0.00 0.00 0.00 0.00 0.00 0.00 0.01 0.00 0.00 0.00 0.00 0.00 0.00 0.00 0.00 0.00 0.00 0.00 0.00 0.00 0.00 0.00 0.00 0.00 0.00 0.00 0.00 0.00 0.00 0.00 0.00 0.00 0.00 0.00 0.00 0.00
0.00 0.00 0.00 0.00 0.00 0.00 0.00 0.00 0.00 0.00 0.00 0.00 0.00 0.00 0.00 0.00 0.00 0.00 0.00 0.00 0.00 0.00 0.00 0.00 0.00 0.00 0.00 0.00 0.00 0.00 0.00 0.00 0.00 0.00 0.00 0.00 0.00 0.00 0.00 0.00 0.00 0.00 0.00
MSLP
1011.77 1012.39 1012.99 1013.56 1013.89 1014.27 1014.86 1015.24 1015.38 1015.60 1015.75 1015.95 1016.12 1016.19 1016.13 1016.08 1016.24 1016.35 1016.24 1016.16 1016.15 1016.09 1015.88 1015.54 1015.14 1014.79 1014.43 1014.18 1013.86 1013.44 1013.15 1012.88 1012.31 1011.64 1011.27 1010.71 1010.39 1010.12 1009.78 1009.47 1009.30 1009.22 1009.10
1011.34 1012.21 1012.95 1013.44 1014.19 1014.77 1014.92 1015.04 1015.33 1015.55 1015.91 1016.11 1016.15 1016.25 1016.27 1016.24 1016.37 1016.38 1016.43 1016.48 1016.47 1016.35 1016.20 1015.84 1015.54 1015.15 1014.91 1014.81 1014.51 1014.17 1013.79 1013.31 1012.72 1012.00 1011.36 1010.84 1010.36 1010.00 1009.66 1009.42 1009.13 1008.79 1008.65
1011.85 1012.20 1012.85 1013.73 1014.38 1014.89 1015.14 1015.27 1015.44 1015.83 1016.22 1016.45 1016.63 1016.76 1016.85 1016.80 1016.70 1016.74 1016.85 1016.95 1016.91 1016.80 1016.61 1016.34 1016.10 1015.77 1015.40 1015.20 1015.03 1014.76 1014.33 1013.73 1013.18 1012.67 1011.97 1011.30 1010.67 1010.23 1009.77 1009.32 1008.97 1008.77 1008.47
1012.30 1012.39 1012.78 1013.73 1014.47 1014.69 1014.93 1015.53 1015.98 1016.14 1016.38 1016.75 1017.09 1017.28 1017.34 1017.44 1017.39 1017.32 1017.33 1017.41 1017.48 1017.28 1016.98 1016.70 1016.41 1016.20 1016.08 1015.69 1015.29 1015.10 1014.68 1014.08 1013.55 1013.04 1012.20 1011.48 1011.10 1010.60 1010.30 1009.90 1009.50 1009.05 1008.54
1013.58 1013.28 1013.50 1013.81 1014.23 1014.79 1015.11 1015.55 1016.37 1016.64 1017.06 1017.34 1017.58 1017.74 1017.80 1017.77 1017.86 1017.78 1017.78 1017.90 1018.00 1017.86 1017.56 1017.13 1016.65 1016.49 1016.43 1016.14 1015.61 1015.16 1014.71 1014.18 1013.67 1013.22 1012.62 1011.95 1011.41 1010.90 1010.58 1010.33 1010.00 1009.29 1008.46
1013.60 1012.82 1013.09 1013.11 1013.94 1014.88 1015.48 1015.98 1016.90 1017.27 1017.59 1017.90 1018.19 1018.23 1018.31 1018.29 1018.25 1018.06 1018.16 1018.12 1018.14 1018.09 1017.89 1017.52 1017.02 1016.83 1016.57 1016.29 1015.86 1015.45 1015.05 1014.35 1013.91 1013.45 1012.91 1012.35 1011.76 1011.44 1011.00 1010.65 1010.23 1009.55 1008.45
1013.30 1013.86 1013.79 1013.67 1014.48 1015.29 1015.90 1016.47 1017.17 1017.68 1018.03 1018.48 1018.78 1018.78 1018.80 1018.86 1018.75 1018.38 1018.42 1018.53 1018.33 1018.18 1018.12 1017.80 1017.28 1017.08 1016.62 1016.20 1015.64 1015.27 1014.93 1014.52 1014.21 1013.71 1013.13 1012.60 1011.92 1011.59 1011.27 1010.63 1010.20 1009.77 1008.96
1012.70 1013.40 1013.72 1014.09 1014.82 1015.53 1016.33 1016.87 1017.58 1018.11 1018.59 1018.82 1019.12 1019.23 1019.20 1019.16 1019.11 1018.92 1018.77 1018.68 1018.73 1018.65 1018.50 1018.29 1018.14 1017.52 1017.01 1016.62 1016.20 1015.56 1015.07 1014.67 1014.30 1013.86 1013.31 1012.60 1012.00 1011.44 1011.08 1010.45 1009.94 1009.34 1008.56
1012.85 1013.49 1013.75 1014.26 1015.14 1016.06 1016.43 1016.91 1017.82 1018.11 1018.84 1018.99 1019.33 1019.45 1019.32 1019.42 1019.36 1019.50 1019.40 1019.37 1019.17 1019.05 1018.83 1018.56 1018.40 1017.97 1017.60 1017.22 1016.86 1016.32 1015.74 1015.00 1014.18 1013.62 1013.21 1012.46 1011.89 1011.12 1010.54 1009.95 1009.46 1009.01 1007.94
1012.58 1013.13 1013.64 1014.47 1015.12 1015.77 1016.08 1016.89 1017.63 1018.20 1018.71 1019.04 1019.37 1019.39 1019.25 1019.36 1019.61 1019.76 1019.83 1019.83 1019.51 1019.31 1019.09 1018.92 1018.81 1018.47 1018.00 1017.52 1017.08 1016.54 1016.00 1015.55 1014.91 1014.15 1013.19 1012.26 1011.81 1011.15 1010.73 1010.28 1009.75 1009.02 1008.26
1012.29 1013.48 1014.18 1014.75 1015.12 1015.65 1016.51 1017.19 1017.94 1018.57 1018.98 1019.42 1019.71 1019.79 1019.62 1019.87 1019.95 1020.06 1020.14 1020.00 1019.93 1019.76 1019.51 1019.13 1018.96 1018.64 1018.22 1017.73 1017.25 1016.70 1016.28 1015.59 1014.88 1014.37 1013.69 1013.02 1012.19 1011.46 1010.94 1010.66 1010.41 1009.97 1008.47
1012.64 1013.24 1014.05 1015.15 1015.49 1016.11 1016.84 1017.90 1018.45 1018.91 1019.26 1019.69 1019.87 1019.94 1020.04 1020.13 1020.26 1020.38 1020.24 1020.02 1019.78 1019.57 1019.32 1019.17 1018.92 1018.50 1018.01 1017.59 1017.12 1016.73 1016.21 1015.71 1015.04 1014.27 1013.62 1012.94 1012.44 1011.87 1011.15 1010.64 1010.05 1009.41 1008.72
1012.72 1013.85 1014.67 1015.62 1016.51 1016.69 1017.13 1017.91 1018.55 1019.20 1019.45 1019.82 1020.04 1020.15 1020.23 1020.36 1020.41 1020.39 1020.29 1020.11 1019.81 1019.56 1019.17 1018.73 1018.32 1018.00 1017.63 1017.17 1016.83 1016.47 1016.06 1015.63 1015.11 1014.42 1013.86 1013.22 1012.71 1011.98 1011.30 1010.53 1009.79 1009.13 1008.07
1013.93 1014.67 1015.20 1016.15 1016.60 1016.95 1017.42 1017.89 1018.26 1019.00 1019.33 1019.60 1019.96 1020.10 1020.03 1020.07 1020.10 1019.93 1019.81 1019.68 1019.52 1019.10 1018.58 1018.26 1017.97 1017.65 1017.33 1017.05 1016.63 1016.37 1016.11 1015.81 1015.33 1014.84 1014.18 1013.43 1012.69 1011.94 1011.21 1010.58 1009.93 1008.91 1008.11
1014.30 1014.86 1015.44 1016.11 1016.59 1017.14 1017.55 1017.80 1018.03 1018.45 1018.60 1019.09 1019.59 1019.83 1019.82 1019.57 1019.32 1019.30 1019.23 1019.04 1018.96 1018.74 1018.58 1018.14 1017.64 1017.26 1016.78 1016.39 1016.14 1016.02 1015.89 1015.56 1015.07 1014.52 1013.93 1013.22 1012.44 1011.85 1011.12 1010.62 1010.11 1009.41 1008.72
1014.63 1015.06 1015.74 1016.51 1017.18 1017.48 1017.72 1018.13 1018.30 1018.67 1018.91 1019.08 1019.12 1019.24 1019.36 1019.17 1018.93 1019.00 1018.90 1018.75 1018.63 1018.56 1018.40 1018.07 1017.38 1016.90 1016.49 1015.95 1015.56 1015.25 1015.10 1014.73 1014.41 1014.04 1013.37 1012.96 1012.26 1011.69 1011.12 1010.41 1010.02 1009.50 1008.69
1014.72 1015.22 1016.06 1016.73 1017.01 1017.26 1017.53 1017.68 1018.00 1018.15 1018.16 1018.26 1018.33 1018.05 1018.21 1018.20 1018.35 1018.44 1018.42 1018.23 1018.09 1018.25 1017.97 1017.24 1016.77 1016.21 1015.79 1015.30 1014.89 1014.59 1014.17 1013.70 1013.82 1013.47 1012.92 1012.47 1012.09 1011.56 1011.05 1010.37 1009.77 1009.17 1008.35
1014.59 1015.08 1015.83 1016.32 1016.60 1017.11 1017.61 1017.88 1018.06 1018.16 1017.99 1017.78 1017.72 1017.66 1017.33 1017.33 1017.57 1017.50 1017.64 1017.57 1017.19 1017.24 1016.91 1016.46 1015.94 1015.46 1015.12 1014.77 1014.26 1013.93 1013.53 1013.15 1012.98 1012.75 1012.28 1011.93 1011.58 1011.18 1010.59 1009.99 1009.35 1008.74 1008.06
1014.74 1015.35 1015.81 1016.53 1016.50 1017.00 1017.03 1017.15 1017.64 1017.81 1017.95 1017.87 1017.88 1017.50 1017.08 1017.09 1016.86 1016.84 1016.90 1017.05 1016.94 1016.36 1015.88 1015.62 1015.23 1014.92 1014.54 1014.17 1013.68 1013.35 1013.08 1012.70 1012.48 1012.11 1011.64 1011.30 1010.99 1010.62 1009.98 1009.45 1008.84 1008.18 1007.60
1014.94 1015.37 1016.11 1016.42 1016.72 1016.97 1016.94 1016.74 1016.95 1017.19 1017.54 1017.41 1017.58 1017.26 1017.19 1017.16 1016.70 1016.44 1016.41 1016.30 1016.15 1015.84 1015.48 1015.21 1014.68 1014.30 1013.96 1013.56 1013.07 1012.76 1012.44 1012.11 1011.76 1011.41 1011.06 1010.78 1010.41 1010.06 1009.53 1008.83 1008.13 1007.53 1006.76
1014.81 1015.38 1015.65 1015.91 1015.95 1016.19 1016.37 1016.65 1016.74 1016.33 1016.58 1016.79 1016.64 1016.50 1016.97 1017.05 1016.50 1016.07 1016.08 1015.76 1015.54 1015.25 1015.05 1014.83 1014.38 1013.92 1013.50 1013.07 1012.66 1012.35 1012.09 1011.68 1011.32 1011.03 1010.70 1010.28 1009.86 1009.37 1008.84 1008.24 1007.54 1006.77 1006.03
1014.42 1015.14 1015.42 1015.74 1015.98 1016.05 1016.23 1016.30 1016.47 1016.51 1016.26 1016.25 1016.02 1016.07 1016.23 1016.36 1016.06 1015.70 1015.61 1015.42 1015.25 1015.16 1015.03 1014.78 1014.27 1013.80 1013.44 1013.03 1012.57 1012.22 1011.83 1011.45 1011.06 1010.72 1010.35 1009.94 1009.50 1008.93 1008.45 1007.77 1006.94 1006.09 1005.31
1014.65 1015.00 1015.56 1015.64 1015.86 1016.04 1016.16 1016.06 1016.02 1015.99 1015.58 1015.33 1015.31 1015.63 1015.82 1015.61 1015.52 1015.52 1015.47 1015.34 1015.25 1015.09 1014.82 1014.52 1014.20 1013.73 1013.35 1012.91 1012.48 1012.15 1011.88 1011.49 1011.13 1010.76 1010.29 1009.80 1009.19 1008.63 1008.13 1007.39 1006.51 1005.54 1004.63
1014.52 1015.08 1015.53 1015.52 1015.83 1015.90 1016.05 1015.81 1015.43 1015.34 1015.17 1015.21 1015.17 1015.15 1015.34 1015.44 1015.39 1015.52 1015.51 1015.31 1015.14 1015.00 1014.76 1014.45 1014.21 1013.92 1013.47 1013.01 1012.55 1012.26 1012.03 1011.77 1011.46 1010.81 1010.33 1009.79 1009.01 1008.25 1007.76 1006.95 1006.02 1005.00 1003.92
1014.88 1015.17 1015.50 1015.64 1015.89 1015.81 1015.58 1015.20 1014.89 1015.30 1015.13 1014.96 1014.74 1014.98 1015.15 1015.30 1015.40 1015.45 1015.37 1015.16 1015.04 1014.84 1014.58 1014.38 1014.13 1013.86 1013.49 1013.04 1012.59 1012.25 1011.90 1011.60 1011.17 1010.74 1010.14 1009.55 1008.79 1008.14 1007.47 1006.54 1005.49 1004.32 1003.06
1015.06 1015.35 1015.42 1015.48 1015.66 1015.52 1015.29 1015.01 1014.74 1014.87 1014.80 1014.44 1014.55 1014.86 1015.07 1015.19 1015.24 1015.24 1015.19 1015.13 1014.94 1014.65 1014.47 1014.30 1014.03 1013.79 1013.39 1012.89 1012.48 1012.19 1011.73 1011.24 1010.71 1010.31 1009.81 1009.03 1008.29 1007.63 1007.00 1006.04 1004.93 1003.86 1002.51
Thickness
5779 5775 5771 5766 5764 5760 5753 5748 5744 5741 5738 5736 5735 5733 5732 5732 5730 5729 5730 5730 5728 5726 5727 5729 5731 5732 5733 5733 5733 5734 5734 5733 5731 5737 5740 5746 5747 5748 5749 5749 5750 5751 5752
5781 5775 5769 5765 5758 5751 5749 5747 5743 5739 5734 5729 5729 5727 5727 5727 5726 5725 5723 5723 5722 5721 5720 5721 5722 5723 5723 5722 5722 5722 5723 5725 5727 5727 5734 5736 5740 5743 5744 5745 5748 5749 5749
5770 5769 5765 5757 5750 5744 5741 5740 5739 5734 5729 5724 5721 5718 5716 5716 5716 5714 5713 5712 5713 5713 5713 5712 5711 5711 5712 5712 5711 5711 5713 5716 5718 5719 5721 5727 5730 5734 5736 5740 5742 5742 5742
5759 5760 5756 5750 5744 5743 5742 5733 5728 5727 5723 5718 5713 5710 5708 5707 5705 5704 5702 5701 5700 5701 5704 5705 5705 5703 5700 5700 5702 5702 5703 5706 5709 5710 5715 5718 5719 5722 5725 5725 5725 5730 5733
5736 5735 5737 5743 5742 5739 5737 5730 5720 5716 5712 5708 5703 5699 5699 5699 5697 5696 5694 5692 5689 5689 5690 5692 5694 5694 5692 5692 5694 5695 5697 5699 5701 5702 5703 5707 5708 5710 5711 5714 5714 5719 5726
5735 5732 5741 5747 5743 5733 5727 5722 5712 5709 5705 5698 5693 5690 5688 5688 5688 5688 5685 5684 5682 5680 5680 5681 5684 5682 5682 5682 5684 5686 5687 5689 5689 5691 5692 5694 5695 5697 5700 5700 5702 5706 5713
5741 5737 5736 5739 5726 5723 5718 5713 5706 5702 5697 5690 5684 5683 5681 5678 5677 5680 5677 5674 5674 5673 5671 5671 5674 5673 5673 5674 5676 5676 5677 5679 5679 5680 5682 5682 5685 5683 5685 5689 5691 5693 5699
5745 5738 5732 5730 5723 5718 5710 5706 5700 5694 5687 5685 5680 5675 5672 5671 5668 5667 5667 5665 5662 5662 5661 5660 5659 5661 5663 5663 5661 5662 5662 5662 5663 5666 5669 5673 5675 5676 5674 5678 5682 5685 5693
5735 5726 5726 5724 5716 5708 5705 5701 5693 5688 5678 5677 5670 5666 5665 5662 5659 5655 5653 5652 5652 5650 5649 5648 5647 5648 5648 5649 5648 5647 5647 5649 5650 5652 5654 5658 5661 5665 5668 5671 5673 5674 5683
5738 5731 5726 5717 5711 5708 5706 5698 5690 5682 5675 5670 5665 5662 5661 5656 5651 5647 5642 5639 5640 5639 5636 5634 5631 5631 5632 5632 5633 5634 5635 5635 5635 5637 5641 5644 5645 5649 5651 5653 5657 5662 5665
5737 5723 5717 5712 5710 5706 5697 5689 5681 5673 5667 5661 5656 5652 5651 5645 5641 5637 5632 5630 5627 5624 5622 5622 5619 5618 5617 5617 5617 5618 5618 5620 5621 5620 5620 5621 5623 5627 5628 5628 5628 5632 5646
5729 5722 5715 5705 5702 5695 5686 5675 5667 5661 5654 5648 5645 5642 5637 5632 5627 5622 5621 5621 5619 5617 5615 5611 5608 5607 5606 5605 5605 5603 5603 5601 5603 5604 5605 5605 5605 5604 5605 5607 5609 5613 5617
5725 5714 5705 5693 5684 5682 5677 5667 5658 5649 5645 5639 5634 5630 5625 5620 5616 5613 5611 5608 5607 5606 5605 5604 5601 5597 5595 5594 5591 5589 5588 5586 5586 5587 5587 5587 5586 5586 5587 5589 5589 5592 5601
5705 5699 5693 5684 5677 5672 5666 5660 5654 5645 5639 5634 5628 5623 5619 5615 5612 5609 5605 5602 5599 5598 5598 5595 5592 5589 5586 5583 5580 5576 5573 5569 5567 5565 5564 5564 5565 5564 5564 5566 5566 5568 5574
5697 5691 5684 5675 5669 5663 5658 5653 5648 5642 5638 5629 5620 5614 5611 5610 5608 5602 5599 5597 5592 5588 5583 5583 5583 5581 5579 5576 5571 5565 5559 5556 5553 5550 5548 5548 5546 5543 5543 5542 5541 5541 5541
5686 5681 5672 5664 5656 5652 5648 5641 5635 5629 5623 5617 5613 5609 5604 5600 5598 5593 5589 5585 5580 5576 5572 5570 5571 5570 5568 5568 5564 5560 5551 5548 5543 5538 5534 5531 5530 5529 5529 5529 5527 5526 5525
5679 5673 5662 5654 5649 5645 5640 5637 5630 5624 5619 5614 5609 5607 5601 5596 5589 5584 5579 5575 5568 5563 5564 5567 5565 5565 5563 5562 5558 5552 5548 5544 5533 5529 5525 5523 5522 5519 5517 5519 5519 5517 5519
5673 5664 5655 5648 5644 5637 5630 5623 5617 5612 5610 5608 5602 5597 5596 5590 5582 5577 5572 5569 5568 5563 5561 5562 5561 5560 5557 5554 5551 5547 5542 5537 5530 5524 5520 5518 5516 5515 5514 5514 5514 5513 5514
5662 5654 5648 5638 5637 5628 5624 5619 5610 5603 5597 5594 5590 5587 5585 5580 5576 5571 5566 5565 5563 5564 5564 5560 5557 5555 5552 5549 5547 5543 5537 5531 5523 5519 5517 5515 5513 5513 5513 5512 5513 5512 5513
5652 5646 5636 5631 5625 5618 5615 5611 5606 5599 5592 5588 5581 5579 5576 5570 5570 5569 5565 5562 5559 5558 5556 5554 5553 5551 5549 5545 5543 5538 5532 5526 5521 5517 5515 5513 5512 5510 5510 5512 5513 5513 5514
5645 5636 5631 5625 5623 5616 5611 5604 5598 5596 5590 5583 5580 5576 5567 5564 5565 5565 5561 5559 5557 5555 5552 5549 5548 5545 5542 5539 5536 5531 5526 5522 5517 5512 5511 5511 5511 5510 5510 5511 5512 5513 5514
5639 5628 5624 5618 5613 5609 5603 5597 5590 5585 5583 5578 5576 5571 5564 5561 5561 5560 5557 5554 5551 5547 5543 5540 5538 5536 5532 5529 5526 5523 5521 5517 5514 5510 5508 5508 5508 5508 5507 5509 5511 5512 5512
5627 5621 5615 5611 5605 5598 5593 5590 5585 5581 5578 5576 5572 5566 5562 5561 5559 5555 5551 5548 5544 5540 5536 5533 5529 5526 5521 5518 5516 5515 5513 5512 5509 5505 5503 5502 5503 5504 5503 5504 5507 5510 5510
5622 5615 5607 5604 5597 5592 5586 5583 5581 5576 5573 5569 5566 5563 5559 5556 5553 5548 5545 5542 5539 5534 5530 5525 5520 5515 5512 5509 5508 5506 5505 5504 5501 5500 5498 5497 5499 5501 5499 5501 5504 5506 5508
5612 5606 5601 5595 5589 5585 5583 5582 5578 5572 5567 5564 5564 5558 5555 5551 5547 5543 5540 5538 5533 5529 5524 5518 5513 5508 5504 5502 5502 5501 5501 5501 5500 5497 5495 5495 5496 5496 5496 5499 5502 5507 5511
5604 5599 5595 5590 5583 5581 5579 5577 5574 5568 5565 5565 5560 5555 5550 5546 5543 5539 5536 5531 5527 5523 5518 5512 5507 5502 5499 5498 5497 5497 5499 5499 5498 5496 5494 5495 5496 5495 5495 5498 5501 5505 5511